Regional Weather Roundup
Issued by NWS

Home | Current Version | Previous Version | Text Only | Print | Product List | Glossary On
Versions: 1 2 3 4 5 6 7 8 9 10 11 12 13 14 15 16 17 18 19 20 21 22 23 24 25 26 27 28 29 30 31 32 33 34 35 36 37 38 39 40 41 42 43 44 45 46 47 48 49 50
000
ASCA42 TJSJ 161811
RWRPR
PUERTO RICO/U.S. VIRGIN ISLANDS HOURLY WEATHER ROUNDUP
NATIONAL WEATHER SERVICE SAN JUAN PR
200 PM AST TUE SEP 16 2014

PRZ001-004-161900-
PUERTO RICO

CITY           SKY/WX    TMP DP  RH WIND       PRES   REMARKS
SAN JUAN LMM   MOSUNNY   88  75  66 NE13G21   29.95F HX  97
MAYAGUEZ       PTSUNNY   88  72  58 W10       29.97F HX  94
AGUADILLA      MOSUNNY   86  73  66 NE8       29.98F HX  93
CEIBA          MOSUNNY   88  73  62 E9        29.99F HX  96
$$

PRZ006-007-161900-
U.S. VIRGIN ISLANDS

CITY           SKY/WX    TMP DP  RH WIND       PRES   REMARKS
CHARLOTTE AMA  SUNNY     86  73  66 SE10      29.96  HX  93
CHRISTIANSTED  MOSUNNY   88  75  66 E8        29.97  HX  97
$$

HOURLY WEATHER ROUNDUP FOR THE NEWS MEDIA

CITY           SKY/WX    TMP DP  RH WIND       PRES   REMARKS
MIAMI          PTSUNNY   88  72  58 E9        30.02F HX  94
ORLANDO        PTSUNNY   90  70  51 W12       30.04F HX  95
NEW YORK       PTSUNNY   63  59  87 VRB3      29.99F
NEWARK         PTSUNNY   69  58  67 CALM      29.98F
CHICAGO        MOSUNNY   63  39  41 NW6       30.17F
HARTFORD       PTSUNNY   69  52  54 S6        29.95F
BOSTON         PTSUNNY   65  52  62 NW10      29.97F
DALLAS         PTSUNNY   86  69  56 E3        30.08F HX  90
PHILADELPHIA   PTSUNNY   72  53  51 NW8       29.98F


USA.gov is the U.S. government's official web portal to all federal, state and local government web resources and services.